#timestamp,LO_Frequency,Hit,StdDev 
1677794415.4,286046996.5,N
1677794435.2,286046999.3,N
1677794455.1,286046998.3,N
1677794456.0,286046998.3,N
1677794475.8,286047001.1,N
1677794495.7,286046996.6,N
1677794515.5,286046997.0,N
1677794535.3,286046998.0,N
1677794555.2,286046994.9,Y
1677794575.9,286046998.6,P
1677794595.7,286046998.9,P
1677794615.6,286046996.5,P
1677794635.4,286046999.0,N
1677794655.3,286047001.7,N
1677794675.1,286047003.7,N
1677794676.0,286047003.7,N
1677794695.8,286047003.7,N
1677794715.7,286047000.1,N
1677794735.5,286047000.3,N
1677794755.3,286047002.1,N
1677794775.2,286046999.9,N
1677794795.0,286047001.7,N
1677794795.9,286047001.7,N
1677794815.8,286047000.5,N
1677794835.6,286047000.6,N
1677794855.4,286047002.4,N
1677794875.3,286047001.9,N
1677794895.1,286047001.3,N
1677794915.8,286047000.2,N
1677794935.7,286046998.6,N
1677794955.5,286047000.3,N
1677794975.4,286047000.4,N
1677794995.2,286046999.7,N
1677795015.0,286047002.2,N
1677795015.9,286047002.2,N
1677795035.8,286047002.2,N
1677795055.6,286047003.4,N
1677795075.4,286047003.6,N
1677795095.3,286047001.4,N
1677795115.1,286047003.9,N
1677795135.9,286047003.6,N
1677795155.7,286047004.3,N
1677795175.5,286047004.0,N
1677795195.4,286047004.1,N
1677795215.2,286047003.5,N
1677795235.0,286047001.8,N
1677795235.9,286047001.8,N
1677795255.8,286047003.8,N
1677795275.6,286047003.5,N
1677795295.5,286047003.1,N
1677795315.3,286047003.2,N
1677795335.1,286047005.4,Y
1677795355.9,286047002.4,P
1677795375.7,286047003.9,P
1677795395.5,286047001.9,N
1677795415.4,286047001.3,N
1677795435.2,286047000.4,N
1677795455.1,286047000.4,N
1677795456.0,286047000.4,N
1677795475.8,286047000.0,N
1677795495.6,286047000.2,N
1677795515.5,286046999.8,N
1677795535.3,286046998.8,N
1677795555.1,286047002.7,N
1677795575.9,286047002.5,N
1677795595.7,286047000.9,N
1677795615.6,286046998.2,N
1677795635.4,286047001.2,N
1677795655.2,286046998.8,N
1677795675.1,286046998.1,N
1677795676.0,286046998.1,N
1677795695.8,286046998.7,N
1677795715.7,286047000.4,N
1677795735.5,286047000.0,N
1677795755.3,286047000.3,N
1677795775.2,286047000.9,N
1677795795.0,286047000.5,N
1677795795.9,286047000.5,N
1677795815.7,286046998.6,N
1677795835.6,286046999.4,N
1677795855.4,286046999.3,N
1677795875.3,286047000.7,N
1677795895.1,286046998.8,N
1677795915.8,286046999.0,N
1677795935.7,286046998.5,N
1677795955.5,286046997.1,N
1677795975.3,286046996.9,N
1677795995.2,286046997.5,N
1677796015.0,286046996.8,N
1677796015.9,286046996.8,N
1677796035.8,286046998.0,N
1677796055.6,286046997.0,N
1677796075.4,286046998.3,N
1677796095.3,286046996.5,N
1677796115.1,286047000.6,N
1677796135.9,286047000.5,N
1677796155.7,286046998.7,N
1677796175.5,286047000.4,N
1677796195.4,286046999.9,N
1677796215.2,286047000.7,N
1677796235.0,286047000.6,N
1677796235.9,286047000.6,N
1677796255.8,286047000.3,N
1677796275.6,286047001.0,N
1677796295.5,286047001.1,N
1677796315.3,286046996.7,N
1677796335.1,286046996.5,N
1677796355.9,286046998.5,N
1677796375.7,286046998.1,N
1677796395.5,286046999.4,N
1677796415.4,286046996.7,N
1677796435.2,286046997.0,N
1677796455.1,286046997.0,N
1677796456.0,286046997.0,N
1677796475.8,286046999.5,N
1677796495.6,286047001.0,N
1677796515.5,286047002.3,N
1677796535.3,286047001.9,N
1677796555.1,286047000.7,N
1677796575.9,286047000.7,N
1677796595.7,286046998.6,N
1677796615.6,286046999.1,N
1677796635.4,286046999.1,N
1677796655.2,286047001.2,N
1677796675.1,286047000.2,N
1677796676.0,286047000.2,N
1677796695.8,286047001.9,N
1677796715.6,286047000.0,N
1677796735.5,286047003.9,N
1677796755.3,286047002.5,N
1677796775.2,286046999.9,N
1677796795.9,286046998.5,N
1677796815.7,286046998.1,N
1677796835.6,286047001.1,N
1677796855.4,286047001.2,N
1677796875.2,286046999.9,N
1677796895.1,286047001.9,N
1677796896.0,286047001.9,N
1677796915.8,286047002.9,N
1677796935.7,286047004.4,N
1677796955.5,286047002.5,N
1677796975.3,286047001.6,N
1677796995.2,286047002.3,N
1677797015.0,286047002.2,N
1677797015.9,286047002.2,N
1677797035.7,286047000.1,N
1677797055.6,286047000.0,N
1677797075.4,286047002.0,N
1677797095.3,286047002.8,N
1677797115.1,286047001.6,N
1677797116.0,286047001.6,N
1677797135.8,286047000.8,N
1677797155.7,286047000.2,N
1677797175.5,286047000.6,N
1677797195.3,286047001.2,N
1677797215.2,286046998.3,N
1677797235.0,286046998.8,N
1677797235.9,286046998.8,N
1677797255.8,286046998.4,N
1677797275.6,286046999.3,N
1677797295.4,286046999.2,N
1677797315.3,286046999.4,N
1677797335.1,286046998.4,N
1677797355.8,286046998.7,N
1677797375.7,286046998.9,N
1677797395.5,286047000.6,N
1677797415.4,286047000.6,N
1677797435.2,286047000.6,N
1677797455.0,286047000.0,N
1677797455.9,286047000.0,N
1677797475.8,286047000.5,N
1677797495.6,286046998.7,N
1677797515.4,286046999.0,N
1677797535.3,286046996.9,N
1677797555.1,286047000.8,N
1677797575.9,286047000.5,N
1677797595.7,286047000.7,N
1677797615.5,286046998.4,N
1677797635.4,286047000.9,N
1677797655.2,286046999.1,N
1677797675.0,286046998.9,N
1677797676.0,286046998.9,N
1677797695.8,286046998.1,N
1677797715.6,286047001.2,N
1677797735.5,286046999.7,N
1677797755.3,286047001.6,N
1677797775.1,286047002.6,N
1677797795.9,286047000.8,N
1677797815.7,286046998.8,N
1677797835.5,286046999.3,N
1677797855.4,286046998.9,N
1677797875.2,286046998.5,N
1677797895.1,286047000.9,N
1677797896.0,286047000.9,N
1677797915.8,286046998.3,N
1677797935.6,286047000.9,N
1677797955.5,286047000.7,N
1677797975.3,286047000.0,N
1677797995.2,286047001.2,N
